Location: Gleizolles
(44.4833°N, 6.7667°E)
Time: 05:57:04
(UTC+00:00)

Transit 4A - Pass Details

Date: 28 June 2024
Orbit: 870 x 973 km, 66.8° (Epoch: 14 July)

Event Time Altitude Azimuth Distance (km) Brightness Sun altitude
Rises 23:05:44 0° 281° (W) 3,458 11.1 -21.9°
Reaches altitude 10° 23:09:58 10° 310° (NW) 2,524 10.8 -22.0°
Maximum altitude 23:12:19 12° 334° (NNW) 2,360 11.0 -22.1°
Drops below altitude 10° 23:14:40 10° 358° (N) 2,536 11.3 -22.1°
Sets 23:18:58 0° 28° (NNE) 3,493 11.8 -22.2°
